Notices

What's New in latest Release from April 7th, 2021:

- Updated Glossary, including Speed of Maximum Gust, and Total Hourly Precipitation

- Updated national and regional climate services offices contacts and prices information

- Addition of station inventory lists for 1981-2010, 1971-2000, and 1961-1990 Normals.

If you haven't already, please take our survey and provide feedback about our website: https://eccc.sondage-survey.ca/f/LanguageSelection.aspx?s=442ca660-fcf1-47c0-95a9-59707d6fd709

Hourly Data Report for August 11, 2016

TORONTO CITY
ONTARIO

43°40'00.000" N
79°24'00.000" W
112.50 m
6158355
71508
XTO

Download Data

Hourly Data (August 2016)
Hourly Data Report for August 11, 2016
TIME
LST
Temp Definition
°C
Dew Point Definition
°C
Rel Hum Definition
%
Precip. Amount Definition
mm

Wind Dir Definition
10's deg

Wind Spd Definition
km/h
Visibility Definition
km
Stn Press Definition
kPa
Hmdx Definition


Wind Chill Definition


Weather Definition


00:00 25.5 16.9 59 0.0 LegendMM LegendMM   100.43 31   LegendNANA
01:00 24.9 17.3 63 0.0 LegendMM LegendMM   100.43 30   LegendNANA
02:00 24.0 17.5 67 0.0 LegendMM LegendMM   100.42 30   LegendNANA
03:00 23.7 17.4 68 0.0 LegendMM LegendMM   100.42 29   LegendNANA
04:00 23.2 17.3 69 0.0 LegendMM LegendMM   100.42 29   LegendNANA
05:00 23.2 16.7 67 0.0 LegendMM LegendMM   100.45 28   LegendNANA
06:00 23.0 17.2 70 0.0 LegendMM LegendMM   100.47 28   LegendNANA
07:00 24.9 18.1 66 0.0 LegendMM LegendMM   100.46 31   LegendNANA
08:00 27.7 17.2 53 0.0 LegendMM LegendMM   100.48 33   LegendNANA
09:00 28.7 17.4 51 0.0 LegendMM LegendMM   100.46 34   LegendNANA
10:00 29.7 17.1 47 0.0 LegendMM LegendMM   100.41 35   LegendNANA
11:00 30.3 18.5 49 0.0 LegendMM LegendMM   100.39 37   LegendNANA
12:00 31.3 17.9 45 0.0 LegendMM LegendMM   100.35 37   LegendNANA
13:00 31.3 18.6 47 0.0 LegendMM LegendMM   100.29 38   LegendNANA
14:00 31.6 20.3 51 0.0 LegendMM LegendMM   100.16 39   LegendNANA
15:00 31.4 20.9 54 0.0 LegendMM LegendMM   100.10 40   LegendNANA
16:00 30.4 20.6 56 0.0 LegendMM LegendMM   100.02 38   LegendNANA
17:00 28.6 21.5 66 0.0 LegendMM LegendMM   99.99 37   LegendNANA
18:00 27.9 21.6 69 0.0 LegendMM LegendMM   99.94 37   LegendNANA
19:00 27.2 21.8 72 0.0 LegendMM LegendMM   99.96 36   LegendNANA
20:00 26.7 21.8 75 0.0 LegendMM LegendMM   99.90 36   LegendNANA
21:00 26.8 22.5 77 0.0 LegendMM LegendMM   99.88 37   LegendNANA
22:00 26.9 22.9 79 0.0 LegendMM LegendMM   99.84 37   LegendNANA
23:00 26.4 22.8 81 0.0 LegendMM LegendMM   99.77 36   LegendNANA

Notes on Data Quality.

Legend

  • E = Estimated
  • M = Missing
  • NA = Not Available*
  • [empty] = Indicates an unobserved value
Date modified: